Weather History for Jackson, MI

Change the Weather History Date:

Wednesday, November 6, 2013

  Actual Average Record
Temperature  
Mean Temperature 49 °F 44 °F  
Max Temperature 57 °F 53 °F 76 °F (1975)
Min Temperature 41 °F 35 °F 19 °F (2012)
Degree Days  
Heating Degree Days 16 21  
Month to date heating degree days 120 123  
Since 1 July heating degree days 742 771  
Cooling Degree Days 0 0  
Month to date cooling degree days 0 0  
Year to date cooling degree days 616 592  
Moisture  
Dew Point 45 °F    
Average Humidity 74    
Maximum Humidity 93    
Minimum Humidity 55    
Precipitation  
Precipitation 0.24 in 0.09 in 0.24 in (2013)
Month to date precipitation 0.44 0.53  
Year to date precipitation 29.95 27.56  
Sea Level Pressure  
Sea Level Pressure 29.94 in    
Wind  
Wind Speed 13 mph (SW)    
Max Wind Speed 22 mph    
Max Gust Speed 29 mph    
Visibility 10 miles    
Events Rain    
T = Trace of Precipitation, MM = Missing Value Source: NWS Daily Summary

Daily Weather History Graph

Daily Weather History Graph

Search for Another Location

Airport:

Trip Planner

Search our weather history database for the weather conditions in past years. The results will help you decide how hot, cold, wet, or windy it might be!

Date:

Astronomy

Nov. 06, 2013 Rise Set
Actual Time 7:17 AM EST 5:24 PM EST
Civil Twilight 6:47 AM EST 5:54 PM EST
Nautical Twilight 6:14 AM EST 6:27 PM EST
Astronomical Twilight 5:41 AM EST 7:00 PM EST
Moon 10:33 AM EST (11/6) 8:26 PM EST (11/6)
Length of Visible Light 11h 06m
Length of Day
10h 07m
Waxing Crescent, 13% of the Moon is Illuminated
Nov 6
Waxing Crescent
Nov 10
First Quarter
Nov 17
Full
Nov 25
Last Quarter
Dec 2
New

Hourly Weather History & Observations

Time (EST) Temp. Windchill Dew Point Humidity Pressure Visibility Wind Dir Wind Speed Gust Speed Precip Events Conditions
12:56 AM 53.1 °F - 39.9 °F 61% 30.12 in 10.0 mi South 13.8 mph - N/A   Mostly Cloudy
1:56 AM 54.0 °F - 39.0 °F 57% 30.09 in 10.0 mi South 12.7 mph - N/A   Overcast
2:56 AM 53.1 °F - 39.9 °F 61% 30.06 in 10.0 mi South 13.8 mph 21.9 mph N/A   Overcast
3:56 AM 54.0 °F - 39.9 °F 59% 30.02 in 10.0 mi South 10.4 mph - N/A   Overcast
4:56 AM 55.0 °F - 39.9 °F 57% 30.00 in 10.0 mi South 12.7 mph - N/A   Overcast
5:56 AM 57.0 °F - 43.0 °F 59% 29.98 in 10.0 mi South 10.4 mph 23.0 mph N/A   Overcast
6:56 AM 55.0 °F - 46.9 °F 74% 29.95 in 10.0 mi South 15.0 mph - 0.00 in   Overcast
7:56 AM 53.1 °F - 48.0 °F 83% 29.94 in 10.0 mi South 16.1 mph 24.2 mph 0.02 in Rain Light Rain
8:56 AM 54.0 °F - 48.9 °F 83% 29.94 in 10.0 mi South 16.1 mph 21.9 mph 0.02 in Rain Light Rain
9:22 AM 53.6 °F - 50.0 °F 88% 29.93 in 10.0 mi SSW 17.3 mph 24.2 mph 0.01 in Rain Light Rain
9:56 AM 54.0 °F - 51.1 °F 90% 29.93 in 10.0 mi SSW 15.0 mph - 0.03 in Rain Light Rain
10:56 AM 55.0 °F - 51.1 °F 86% 29.91 in 7.0 mi SSW 13.8 mph 25.3 mph 0.01 in   Overcast
11:56 AM 54.0 °F - 52.0 °F 93% 29.87 in 10.0 mi South 15.0 mph 20.7 mph 0.04 in Rain Light Rain
12:10 PM 53.6 °F - 51.8 °F 94% 29.86 in 5.0 mi South 17.3 mph 25.3 mph 0.01 in Rain Light Rain
12:23 PM 53.6 °F - 51.8 °F 94% 29.86 in 4.0 mi SSW 16.1 mph 23.0 mph 0.02 in Rain Light Rain
12:56 PM 54.0 °F - 52.0 °F 93% 29.85 in 10.0 mi SSW 12.7 mph 25.3 mph 0.03 in   Overcast
1:56 PM 54.0 °F - 51.1 °F 90% 29.83 in 10.0 mi SSW 17.3 mph 24.2 mph 0.04 in Rain Light Rain
2:56 PM 55.0 °F - 51.1 °F 86% 29.83 in 10.0 mi SW 16.1 mph 26.5 mph 0.01 in   Overcast
3:56 PM 54.0 °F - 52.0 °F 93% 29.84 in 10.0 mi SW 13.8 mph 26.5 mph 0.00 in   Overcast
4:56 PM 54.0 °F - 51.1 °F 90% 29.82 in 10.0 mi SSW 17.3 mph 24.2 mph 0.01 in   Overcast
5:56 PM 54.0 °F - 52.0 °F 93% 29.83 in 10.0 mi SW 15.0 mph 23.0 mph N/A   Overcast
6:15 PM 48.2 °F - 46.4 °F 93% 29.87 in 7.0 mi West 18.4 mph 26.5 mph 0.01 in   Overcast
6:56 PM 46.0 °F 39.9 °F 43.0 °F 89% 29.92 in 10.0 mi West 13.8 mph 20.7 mph 0.03 in   Overcast
7:33 PM 44.6 °F 37.8 °F 42.8 °F 93% 29.94 in 10.0 mi WNW 15.0 mph 20.7 mph N/A   Overcast
7:56 PM 44.1 °F 37.4 °F 41.0 °F 89% 29.96 in 10.0 mi West 13.8 mph 21.9 mph N/A   Overcast
8:53 PM 42.8 °F 37.5 °F 39.2 °F 87% 29.98 in 10.0 mi WNW 9.2 mph 17.3 mph N/A   Overcast
8:56 PM 43.0 °F 36.8 °F 39.9 °F 89% 29.98 in 10.0 mi WNW 11.5 mph 17.3 mph N/A   Overcast
9:56 PM 42.1 °F 36.6 °F 39.9 °F 92% 29.98 in 10.0 mi NW 9.2 mph 17.3 mph 0.00 in   Overcast
10:24 PM 42.8 °F 36.6 °F 39.2 °F 87% 30.00 in 10.0 mi NW 11.5 mph 21.9 mph N/A   Overcast
10:56 PM 41.0 °F 35.2 °F 37.9 °F 89% 30.01 in 10.0 mi WNW 9.2 mph 18.4 mph N/A   Mostly Cloudy
11:56 PM 41.0 °F 36.4 °F 37.9 °F 89% 30.01 in 10.0 mi NW 6.9 mph - N/A   Overcast